Regional Weather Roundup
Issued by NWS Newport/Morehead, NC

Current Version | Previous Version | Text Only | Print | Product List | Glossary Off
Versions: 1 2 3 4 5 6 7 8 9 10 11 12 13 14 15 16 17 18 19 20 21 22 23 24 25 26 27 28 29 30 31 32 33 34 35 36 37 38 39 40 41 42 43 44 45 46 47 48 49 50
000 ASUS42 KMHX 252013 RWRMHX WEATHER ROUNDUP FOR EASTERN NORTH CAROLINA NATIONAL WEATHER SERVICE NEWPORT/MOREHEAD CITY NC 400 PM EDT TUE APR 25 2017 NOTE: "FAIR" INDICATES FEW OR NO CLOUDS BELOW 12,000 FEET WITH NO SIGNIFICANT WEATHER AND/OR OBSTRUCTIONS TO VISIBILITY NCZ015>017-031-032-045>047-102-103-252100- NORTH COAST CITY SKY/WX TMP DP RH WIND PRES REMARKS EDENTON PTSUNNY 74 59 60 CALM 29.60F ELIZABETH CITY CLOUDY 69 66 90 E7 29.59F KITTY HAWK CLOUDY 65 65 100 CALM 29.58F MANTEO CLOUDY 68 64 86 E12 29.59F $$ NCZ045>047-081-094-103-104-252100- CENTRAL COAST CITY SKY/WX TMP DP RH WIND PRES REMARKS FRISCO CLOUDY 70 62 76 SW5 29.62F HAZE $$ NCZ095-097-098-100-101-252100- SOUTHERN COAST CITY SKY/WX TMP DP RH WIND PRES REMARKS BEAUFORT SUNNY 71 63 75 S13 29.61F CEDAR ISLAND NOT AVBL JACKSONVILLE CLOUDY 70 64 81 SE8 29.59F PINEY ISLAND PTCLDY N/A N/A N/A S10 29.61F WILMINGTON PTSUNNY 72 60 66 SW20 29.62S $$ NCZ011>013-027>030-043-044-078>080-089-090>093-098-252100- COASTAL PLAIN CITY SKY/WX TMP DP RH WIND PRES REMARKS AHOSKIE N/A 74 60 62 CALM 29.59F CLINTON CLOUDY 73 61 65 W9 29.63S ELIZABETHTOWN PTSUNNY 69 63 82 S3 29.63S GOLDSBORO MOSUNNY 76 61 60 W12 29.58F GREENVILLE PTSUNNY 73 61 64 SW5 29.63S HAVELOCK MOSUNNY 74 56 53 S9 29.61F KENANSVILLE CLOUDY 68 64 88 SW6 29.62S KINSTON PTSUNNY 73 61 64 E5 29.60F NEW BERN CLOUDY 71 65 81 E5 29.61F RICHLANDS PTSUNNY 71 60 68 W10G18 29.61R ROCKY MOUNT MOSUNNY 74 59 59 VRB3 29.60F WASHINGTON MOSUNNY 73 60 61 SE3 29.59S WHITEVILLE CLOUDY 66 60 80 SW7 29.66S $$ AMZ130-135-150-152-154-156-158-170-250-252-270-ANZ085-086-088-633-658-670-252100- MARINE OBSERVATIONS STATION/POSITION TIME TEMP WIND PRES WAVE SWELL AIR SEA DIR/SP/G HT/PER HT/PER (UTC) (F) (DEG/KT/KT) (MB) (FT/S) (FT/S) CHESAPEAKE LIGHT NOT AVBL 64 E VA BEACH 1950 62 55 50/ 4/ 8 1002.9 11/10 11/10 DUCK 1942 62 59 80/ 4/ 5 1002.0 2 E DUCK 1930 59 N/A 7/11 3/11 OREGON INLET 1942 64 64 50/ 10/ 13 1001.7 13E OREGON INLT 1948 59 N/A 7/11 7/11 HATTERAS CG 1942 69 67 140/ 3/ 5 1002.7 DIAMOND BUOY 1950 70 78 200/ 6/ 8 1002.9 7/10 7/10 CAPE LOOKOUT 2000 69 190/ 10/ 12 1002.6 BEAUFORT LAB 1942 69 66 180/ 12/ 14 1002.0 30 SE NEW RVR IN 1908 67 240/ 14/ 17 1003.7 30 SE NEW RVR IN 1943 72 N/A 7/11 3/11 27 SE WRIGHTSVLE 1908 67 72 240/ 16/ 21 1002.9 5 SE WRIGHTSVLE 1908 69 70 210/ 12/ 17 1003.0 225 S CAPE HAT 1950 74 75 230/ 17/ 21 1006.6 9/10 5/10 41 SE CHARLESTON 1950 67 73 270/ 14/ 17 1005.5 6/ 9 3/ 9 $$

USA.gov is the U.S. government's official web portal to all federal, state and local government web resources and services.